Flag for U.S.A. Weather past 2 weeks in Raleigh, North Carolina, U.S.A.

Now
64 °F

Passing clouds.


Feels Like: 64 °F
Forecast: 59 / 80 °F
Wind: 9 mph from Northeast

Location: Raleigh-Durham International Airport

Current Time: Sep 20, 2014 at 12:36:07 PM

Latest Report: Sep 20, 2014 at 8:51 AM


Visibility: 10 mi

Pressure: 30.21 "Hg

Humidity: 81%

Dew point: 58 °F

Location of RaleighLocation

Historic Weather in Raleigh — Graph

°F

Raleigh temperature yesterday

Maximum temperature yesterday: 79 °F (at 1:51 PM)
Minimum temperature yesterday: 64 °F (at 3:51 AM)
Average temperature yesterday: 70 °F

Past Weeks' High & Low Weather Summary

 TemperatureHumidityPressure
High91 °F (Sep 5, 3:51 PM)94% (Sep 8, 4:04 AM)30.27 "Hg (Sep 8, 4:04 AM)
Low58 °F (Sep 20, 5:51 AM)47% (Sep 18, 3:51 PM)29.91 "Hg (Sep 17, 5:51 PM)
Average72 °F78%30.07 "Hg
* Reported Sep 5 8:51 AM — Sep 20 8:51 AM, Raleigh, Weather by CustomWeather, © 2014

Note: Actual official high and low records may vary slightly from our data, if they occured in-between our weather recording intervals... More about our weather records

Advertising

Raleigh weather history for previous 24 hours

 ConditionsComfort  
Time TempWeatherWind HumidityBarometerVisibility
8:51 AM
Sep 20
64 °FPassing clouds.9 mph81%30.21 "Hg10 mi
7:51 AM60 °FPassing clouds.No wind86%30.22 "Hg10 mi
6:51 AM59 °FPassing clouds.No wind90%30.21 "Hg9 mi
5:51 AM58 °FClear.No wind93%30.20 "Hg9 mi
4:51 AM59 °FPassing clouds.No wind90%30.19 "Hg10 mi
3:51 AM61 °FPassing clouds.5 mph83%30.20 "Hg10 mi
2:51 AM61 °FPassing clouds.5 mph83%30.21 "Hg10 mi
1:51 AM62 °FPassing clouds.5 mph80%30.23 "Hg10 mi
12:51 AM64 °FClear.6 mph78%30.24 "Hg10 mi
11:51 PM
Sep 19
66 °FClear.8 mph73%30.24 "Hg10 mi
10:51 PM66 °FClear.6 mph73%30.23 "Hg10 mi
9:51 PM68 °FPassing clouds.7 mph65%30.22 "Hg10 mi
8:51 PM68 °FPassing clouds.6 mph70%30.21 "Hg10 mi
7:51 PM70 °FScattered clouds.7 mph71%30.19 "Hg10 mi
6:51 PM72 °FScattered clouds.6 mph68%30.19 "Hg10 mi
5:51 PM75 °FBroken clouds.8 mph58%30.19 "Hg10 mi
4:51 PM76 °FBroken clouds.8 mph56%30.18 "Hg10 mi
3:51 PM79 °FBroken clouds.10 mph48%30.16 "Hg10 mi
2:51 PM79 °FScattered clouds.10 mph48%30.17 "Hg10 mi
1:51 PM79 °FScattered clouds.15 mph47%30.17 "Hg10 mi
12:51 PM77 °FScattered clouds.10 mph48%30.17 "Hg10 mi
Weather by CustomWeather, © 2014

See weather overviewHow to use our weather pages